Weather History for Mineola, TX

Change the Weather History Date:

Sunday, January 13, 2013

  Actual Average (KTYR) Record (KTYR)
Temperature  
Mean Temperature 38 °F 46 °F  
Max Temperature 44 °F 56 °F 78 °F (1907)
Min Temperature 32 °F 37 °F 5 °F (1918)
Degree Days  
Heating Degree Days 27 19  
Month to date heating degree days 247  
Since 1 July heating degree days 1148  
Cooling Degree Days 0 0  
Month to date cooling degree days 0  
Year to date cooling degree days 0  
Moisture  
Dew Point 30 °F    
Average Humidity 76    
Maximum Humidity 93    
Minimum Humidity 57    
Precipitation  
Precipitation 0.00 in 0.08 in 4.52 in (2007)
Month to date precipitation 1.33  
Year to date precipitation 1.33  
Snow  
Snow 0.00 in - - ()
Month to date snowfall  
Since 1 July snowfall  
Snow Depth -    
Sea Level Pressure  
Sea Level Pressure 30.12 in    
Wind  
Wind Speed 12 mph (NNW)    
Max Wind Speed 17 mph    
Max Gust Speed 28 mph    
Visibility 10 miles    
Events Rain , Thunderstorm    
T = Trace of Precipitation, MM = Missing Value Source: NWS Daily Summary

Daily Weather History Graph

Daily Weather History Graph

Search for Another Location

Airport:

Trip Planner

Search our weather history database for the weather conditions in past years. The results will help you decide how hot, cold, wet, or windy it might be!

Date:

Astronomy

Jan. 13, 2013 Rise Set
Actual Time 7:24 AM CST 5:37 PM CST
Civil Twilight 6:57 AM CST 6:03 PM CST
Nautical Twilight 6:27 AM CST 6:34 PM CST
Astronomical Twilight 5:57 AM CST 7:03 PM CST
Moon 8:32 AM CST (1/13) 8:06 PM CST (1/13)
Length of Visible Light 11h 06m
Length of Day
10h 12m
Waxing Crescent, 5% of the Moon is Illuminated
Jan 13
Waxing Crescent
Jan 18
First Quarter
Jan 26
Full
Feb 3
Last Quarter
Feb 10
New

Hourly Weather History & Observations

Time (CST) Temp. Windchill Dew Point Humidity Pressure Visibility Wind Dir Wind Speed Gust Speed Precip Events Conditions
12:15 AM 37.4 °F 29.8 °F 35.6 °F 93% 29.90 in 10.0 mi NW 11.5 mph - N/A   Unknown
12:35 AM 37.4 °F 30.8 °F 35.6 °F 93% 29.90 in 9.0 mi NW 9.2 mph - N/A   Unknown
12:55 AM 39.2 °F 32.0 °F 35.6 °F 87% 29.91 in 10.0 mi NW 11.5 mph 17.3 mph N/A   Unknown
1:15 AM 39.2 °F 33.0 °F 35.6 °F 87% 29.90 in 10.0 mi NNW 9.2 mph - N/A   Unknown
1:35 AM 39.2 °F 32.5 °F 35.6 °F 87% 29.94 in 10.0 mi NNW 10.4 mph 16.1 mph N/A   Unknown
1:55 AM 39.2 °F 32.5 °F 35.6 °F 87% 29.95 in 10.0 mi NW 10.4 mph 18.4 mph N/A   Unknown
2:15 AM 39.2 °F 30.5 °F 35.6 °F 87% 29.93 in 10.0 mi NNW 16.1 mph - N/A   Unknown
2:35 AM 37.4 °F 29.8 °F 35.6 °F 93% 29.96 in 10.0 mi NW 11.5 mph 16.1 mph N/A   Unknown
2:55 AM 37.4 °F 28.9 °F 33.8 °F 87% 30.00 in 10.0 mi NNW 13.8 mph 21.9 mph N/A   Unknown
3:15 AM 37.4 °F 28.9 °F 33.8 °F 87% 29.97 in 10.0 mi NW 13.8 mph 21.9 mph N/A Thunderstorm Unknown
3:35 AM 37.4 °F 28.9 °F 33.8 °F 87% 29.98 in 10.0 mi NW 13.8 mph 21.9 mph N/A   Unknown
3:55 AM 35.6 °F 25.5 °F 32.0 °F 87% 29.96 in 10.0 mi NNW 17.3 mph 27.6 mph N/A   Unknown
4:15 AM 35.6 °F 27.1 °F 33.8 °F 93% 30.02 in 10.0 mi NNW 12.7 mph 18.4 mph N/A Thunderstorm Unknown
4:35 AM 35.6 °F 25.5 °F 32.0 °F 87% 29.97 in 10.0 mi NNW 17.3 mph 25.3 mph N/A   Unknown
4:55 AM 35.6 °F 28.0 °F 32.0 °F 87% 30.02 in 9.0 mi NNW 10.4 mph - N/A Rain Light Rain
5:15 AM 35.6 °F 27.1 °F 32.0 °F 87% 30.00 in 7.0 mi NNW 12.7 mph 16.1 mph N/A Thunderstorm Thunderstorm
5:35 AM 35.6 °F 27.1 °F 32.0 °F 87% 30.01 in 10.0 mi NW 12.7 mph 20.7 mph N/A Thunderstorm Unknown
5:55 AM 33.8 °F 24.8 °F 32.0 °F 93% 30.04 in 10.0 mi NW 12.7 mph 16.1 mph N/A   Unknown
6:15 AM 35.6 °F 28.6 °F 32.0 °F 87% 30.06 in 10.0 mi NNW 9.2 mph - N/A   Unknown
6:35 AM 33.8 °F 24.3 °F 32.0 °F 93% 30.05 in 10.0 mi NNW 13.8 mph - N/A   Unknown
6:55 AM 33.8 °F 24.8 °F 32.0 °F 93% 30.08 in 10.0 mi NW 12.7 mph 18.4 mph N/A   Unknown
7:15 AM 33.8 °F 24.8 °F 30.2 °F 87% 30.09 in 10.0 mi NNW 12.7 mph 24.2 mph N/A   Unknown
7:35 AM 33.8 °F 26.4 °F 32.0 °F 93% 30.09 in 10.0 mi NNW 9.2 mph 19.6 mph N/A   Unknown
7:55 AM 33.8 °F 23.5 °F 30.2 °F 87% 30.10 in 10.0 mi NNW 16.1 mph 23.0 mph N/A   Unknown
8:15 AM 33.8 °F 23.5 °F 30.2 °F 87% 30.12 in 10.0 mi NNW 16.1 mph 20.7 mph N/A   Unknown
8:35 AM 33.8 °F 24.3 °F 30.2 °F 87% 30.13 in 10.0 mi NNW 13.8 mph 21.9 mph N/A   Unknown
9:15 AM 33.8 °F 24.8 °F 30.2 °F 87% 30.15 in 10.0 mi NNW 12.7 mph 19.6 mph N/A   Unknown
9:55 AM 33.8 °F 23.2 °F 30.2 °F 87% 30.17 in 10.0 mi NNW 17.3 mph 24.2 mph N/A   Unknown
10:15 AM 35.6 °F 27.1 °F 30.2 °F 81% 30.18 in 10.0 mi NNW 12.7 mph 19.6 mph N/A   Unknown
10:35 AM 35.6 °F 26.6 °F 30.2 °F 81% 30.18 in 10.0 mi NNW 13.8 mph 20.7 mph N/A   Unknown
10:55 AM 37.4 °F 28.5 °F 30.2 °F 75% 30.18 in 9.0 mi NW 15.0 mph 20.7 mph N/A   Unknown
11:15 AM 37.4 °F 29.8 °F 30.2 °F 75% 30.19 in 10.0 mi NW 11.5 mph - N/A   Unknown
11:55 AM 39.2 °F 31.6 °F 32.0 °F 75% 30.18 in 10.0 mi NNW 12.7 mph 20.7 mph N/A   Unknown
12:15 PM 39.2 °F 31.2 °F 32.0 °F 75% 30.18 in 10.0 mi NNW 13.8 mph 17.3 mph N/A   Unknown
12:35 PM 41.0 °F 33.5 °F 32.0 °F 70% 30.17 in 10.0 mi NNW 13.8 mph 20.7 mph N/A   Unknown
12:55 PM 41.0 °F 33.9 °F 32.0 °F 70% 30.16 in 10.0 mi NW 12.7 mph - N/A   Unknown
1:15 PM 42.8 °F 36.6 °F 32.0 °F 66% 30.15 in 10.0 mi NW 11.5 mph 16.1 mph N/A   Unknown
1:35 PM 42.8 °F 35.4 °F 32.0 °F 66% 30.16 in 10.0 mi NNW 15.0 mph 19.6 mph N/A   Unknown
1:55 PM 42.8 °F 35.4 °F 30.2 °F 61% 30.16 in 10.0 mi North 15.0 mph - N/A   Unknown
2:15 PM 44.6 °F 38.8 °F 32.0 °F 61% 30.16 in 10.0 mi NNW 11.5 mph - N/A   Unknown
2:35 PM 44.6 °F 38.4 °F 30.2 °F 57% 30.16 in 10.0 mi NNW 12.7 mph 18.4 mph N/A   Unknown
2:55 PM 44.6 °F 38.1 °F 30.2 °F 57% 30.17 in 10.0 mi NNW 13.8 mph 18.4 mph N/A   Unknown
3:15 PM 44.6 °F 38.1 °F 30.2 °F 57% 30.17 in 10.0 mi North 13.8 mph 18.4 mph N/A   Unknown
3:55 PM 44.6 °F 39.2 °F 30.2 °F 57% 30.17 in 10.0 mi North 10.4 mph - N/A   Unknown
4:15 PM 44.6 °F 38.1 °F 30.2 °F 57% 30.18 in 10.0 mi NNW 13.8 mph - N/A   Unknown
4:35 PM 42.8 °F 36.6 °F 30.2 °F 61% 30.18 in 10.0 mi NNW 11.5 mph - N/A   Unknown
4:55 PM 42.8 °F 37.5 °F 30.2 °F 61% 30.18 in 10.0 mi North 9.2 mph 17.3 mph N/A   Unknown
5:15 PM 42.8 °F 37.0 °F 30.2 °F 61% 30.18 in 10.0 mi NNW 10.4 mph - N/A   Unknown
5:35 PM 39.2 °F 33.0 °F 30.2 °F 70% 30.19 in 10.0 mi NNW 9.2 mph - N/A   Unknown
5:55 PM 39.2 °F 34.2 °F 30.2 °F 70% 30.20 in 10.0 mi NNW 6.9 mph - N/A   Unknown
6:35 PM 37.4 °F 32.1 °F 28.4 °F 70% 30.21 in 10.0 mi NNW 6.9 mph - N/A   Unknown
6:55 PM 37.4 °F 31.4 °F 28.4 °F 70% 30.21 in 10.0 mi North 8.1 mph - N/A   Unknown
7:15 PM 37.4 °F 32.8 °F 28.4 °F 70% 30.22 in 10.0 mi North 5.8 mph - N/A   Unknown
7:35 PM 37.4 °F 32.1 °F 26.6 °F 65% 30.22 in 10.0 mi North 6.9 mph - N/A   Unknown
7:55 PM 37.4 °F 31.4 °F 26.6 °F 65% 30.22 in 10.0 mi North 8.1 mph - N/A   Unknown
8:15 PM 35.6 °F 28.6 °F 26.6 °F 70% 30.22 in 10.0 mi North 9.2 mph - N/A   Unknown
8:35 PM 35.6 °F 28.6 °F 24.8 °F 65% 30.23 in 10.0 mi North 9.2 mph - N/A   Unknown
8:55 PM 35.6 °F 28.6 °F 24.8 °F 65% 30.22 in 10.0 mi North 9.2 mph - N/A   Unknown
9:15 PM 35.6 °F 31.7 °F 24.8 °F 65% 30.23 in 10.0 mi NNE 4.6 mph - N/A   Unknown
9:35 PM 33.8 °F 28.6 °F 24.8 °F 70% 30.25 in 10.0 mi North 5.8 mph - N/A   Unknown
9:55 PM 33.8 °F 27.7 °F 23.0 °F 65% 30.24 in 10.0 mi North 6.9 mph - N/A   Unknown
10:15 PM 33.8 °F 27.0 °F 23.0 °F 65% 30.25 in 10.0 mi North 8.1 mph - N/A   Unknown
10:35 PM 33.8 °F 27.7 °F 23.0 °F 65% 30.26 in 10.0 mi North 6.9 mph - N/A   Unknown
10:55 PM 32.0 °F 26.4 °F 23.0 °F 69% 30.26 in 10.0 mi North 5.8 mph - N/A   Unknown
11:15 PM 32.0 °F 25.6 °F 23.0 °F 69% 30.27 in 10.0 mi North 6.9 mph - N/A   Unknown
11:35 PM 32.0 °F 24.8 °F 23.0 °F 69% 30.27 in 10.0 mi North 8.1 mph - N/A   Unknown
11:55 PM 32.0 °F 26.4 °F 23.0 °F 69% 30.27 in 10.0 mi North 5.8 mph - N/A   Unknown